Quick links : Home Page : Contact Us : Index : Site Map : Search Site : Ephemerides


(83789) 2001 TC205

Orbital Elements

The following orbital elements are taken from MPO 59993
 (83789) 2001 TC205
Epoch 2007 Oct. 27.0 TT = JDT 2454400.5                 MPC
M 305.54165              (2000.0)            P               Q
n   0.17461902     Peri.   32.31356     -0.24739216     -0.95309355
a   3.1701150      Node    72.51846     +0.84555351     -0.30025095
e   0.0797241      Incl.   10.53454     +0.47311349     +0.03823686
P   5.64           H   14.9           G   0.15           U   1
From 49 observations at 4 oppositions, 1996-2004, mean residual 0".69.
An explanation of the orbital elements is available.

These orbital elements are also available in forms suitable for loading into a number of popular planetarium-type software programs.


Ephemeris

The following ephemeris is at intervals of five days. A daily ephemeris covering the same time interval is also available.

Personalized ephemerides for this (and other) objects may be generated using the Minor Planet & Comet Ephemeris Service.

Date    TT    R. A. (2000) Decl.     Delta      r     Elong.  Phase     V
2008 08 22    07 45.15   +25 27.0    3.678    2.918    35.7    11.7    20.8
2008 08 27    07 53.33   +25 17.1    3.637    2.918    38.7    12.5    20.8
2008 09 01    08 01.40   +25 06.5    3.593    2.918    41.7    13.3    20.8
2008 09 06    08 09.33   +24 55.4    3.546    2.918    44.7    14.1    20.8
2008 09 11    08 17.11   +24 43.7    3.497    2.918    47.8    14.8    20.8
2008 09 16    08 24.74   +24 31.8    3.445    2.918    50.9    15.5    20.8
2008 09 21    08 32.19   +24 19.7    3.391    2.918    54.1    16.2    20.8
2008 09 26    08 39.46   +24 07.7    3.335    2.918    57.3    16.8    20.7
2008 10 01    08 46.53   +23 56.0    3.277    2.919    60.6    17.4    20.7
2008 10 06    08 53.38   +23 44.8    3.216    2.919    64.0    17.9    20.7
2008 10 11    09 00.00   +23 34.3    3.154    2.920    67.4    18.4    20.7
2008 10 16    09 06.36   +23 24.7    3.091    2.920    70.9    18.8    20.6
2008 10 21    09 12.46   +23 16.3    3.026    2.921    74.4    19.2    20.6
2008 10 26    09 18.26   +23 09.2    2.961    2.922    78.1    19.4    20.6
2008 10 31    09 23.75   +23 03.9    2.894    2.922    81.8    19.6    20.5
2008 11 05    09 28.90   +23 00.4    2.827    2.923    85.6    19.8    20.5
2008 11 10    09 33.67   +22 59.2    2.759    2.924    89.5    19.8    20.4
2008 11 15    09 38.06   +23 00.3    2.692    2.925    93.6    19.7    20.4
2008 11 20    09 42.02   +23 04.1    2.625    2.926    97.7    19.5    20.3
2008 11 25    09 45.53   +23 10.8    2.559    2.927   102.0    19.3    20.2
2008 11 30    09 48.55   +23 20.6    2.494    2.929   106.4    18.9    20.2
2008 12 05    09 51.04   +23 33.6    2.430    2.930   110.9    18.3    20.1
2008 12 10    09 52.97   +23 50.0    2.369    2.931   115.5    17.7    20.0
2008 12 15    09 54.33   +24 09.6    2.311    2.932   120.2    16.9    20.0
2008 12 20    09 55.08   +24 32.5    2.255    2.934   125.1    15.9    19.9
2008 12 25    09 55.19   +24 58.6    2.204    2.935   130.1    14.8    19.8
2008 12 30    09 54.65   +25 27.5    2.156    2.937   135.2    13.6    19.7
2009 01 04    09 53.46   +25 58.8    2.114    2.939   140.4    12.3    19.6
2009 01 09    09 51.65   +26 31.8    2.076    2.940   145.6    10.9    19.5
2009 01 14    09 49.23   +27 05.9    2.045    2.942   150.7     9.4    19.4
2009 01 19    09 46.26   +27 40.4    2.019    2.944   155.6     7.9    19.3
2009 01 24    09 42.80   +28 14.3    2.001    2.946   160.2     6.5    19.2
2009 01 29    09 38.95   +28 46.7    1.989    2.948   163.8     5.4    19.2
2009 02 03    09 34.82   +29 16.6    1.984    2.950   165.7     4.7    19.1
2009 02 08    09 30.53   +29 43.4    1.987    2.952   165.3     4.9    19.2
2009 02 13    09 26.22   +30 06.2    1.997    2.954   162.7     5.7    19.2
2009 02 18    09 22.02   +30 24.7    2.013    2.956   158.7     7.0    19.3
2009 02 23    09 18.05   +30 38.6    2.037    2.958   154.1     8.4    19.4
2009 02 28    09 14.43   +30 47.7    2.066    2.960   149.1     9.9    19.5
2009 03 05    09 11.26   +30 52.0    2.102    2.963   144.0    11.3    19.6
2009 03 10    09 08.63   +30 51.7    2.143    2.965   139.0    12.7    19.7
2009 03 15    09 06.59   +30 47.2    2.190    2.968   134.0    14.0    19.8
2009 03 20    09 05.16   +30 38.7    2.240    2.970   129.0    15.1    19.9
2009 03 25    09 04.37   +30 26.6    2.295    2.973   124.2    16.1    19.9
2009 03 30    09 04.22   +30 11.3    2.353    2.975   119.5    17.0    20.0
2009 04 04    09 04.70   +29 53.0    2.414    2.978   115.0    17.7    20.1
2009 04 09    09 05.79   +29 32.1    2.478    2.980   110.5    18.3    20.2
2009 04 14    09 07.44   +29 08.9    2.543    2.983   106.2    18.8    20.3
2009 04 19    09 09.64   +28 43.6    2.610    2.986   102.1    19.2    20.3
2009 04 24    09 12.33   +28 16.4    2.678    2.989    98.0    19.5    20.4
2009 04 29    09 15.49   +27 47.4    2.747    2.992    94.0    19.6    20.5
2009 05 04    09 19.08   +27 16.8    2.816    2.995    90.2    19.7    20.5
2009 05 09    09 23.05   +26 44.7    2.886    2.998    86.4    19.6    20.6
2009 05 14    09 27.37   +26 11.3    2.955    3.001    82.8    19.5    20.6
2009 05 19    09 32.01   +25 36.5    3.024    3.004    79.2    19.3    20.7
2009 05 24    09 36.94   +25 00.5    3.091    3.007    75.7    19.1    20.7
2009 05 29    09 42.12   +24 23.3    3.159    3.010    72.3    18.7    20.7
2009 06 03    09 47.53   +23 45.0    3.224    3.013    69.0    18.3    20.8
2009 06 08    09 53.15   +23 05.7    3.289    3.016    65.7    17.9    20.8
2009 06 13    09 58.95   +22 25.4    3.352    3.019    62.5    17.4    20.8
2009 06 18    10 04.90   +21 44.1    3.413    3.023    59.3    16.8    20.9
2009 06 23    10 11.01   +21 01.9    3.472    3.026    56.1    16.2    20.9
2009 06 28    10 17.24   +20 18.8    3.529    3.029    53.1    15.6    20.9
2009 07 03    10 23.57   +19 35.0    3.584    3.033    50.0    14.9    20.9
2009 07 08    10 30.01   +18 50.4    3.637    3.036    47.0    14.2    20.9
2009 07 13    10 36.53   +18 05.2    3.687    3.039    44.0    13.4    20.9
2009 07 18    10 43.12   +17 19.3    3.735    3.043    41.1    12.7    20.9
2009 07 23    10 49.78   +16 32.8    3.780    3.046    38.1    11.9    20.9
2009 07 28    10 56.49   +15 45.9    3.822    3.050    35.2    11.1    20.9

Back to Observable Critical-List Minor Planets

MPC

Valid HTML 4.01!